This demonstration page uses our WeatherBlox Daily Observations layout. Learn more.

Left ArrowRight Arrow

53.62937, 11.41316

Hourly Observations for June 30, 2015

Temp ( °F °C ) Dew Point ( °F °C ) Humidity (%) Winds ( mph kmh ) Pressure ( in mb ) Visibility ( mi km ) Precip ( " mm )
6:20 am 06:20 Mostly Sunny 57 14 54 12 88 88 W 2 4 30.18 1022 7 11 N/A
6:50 am 06:50 Mostly Sunny 59 15 55 13 88 88 W 3 6 30.18 1022 7 11 N/A
7:20 am 07:20 Mostly Sunny 61 16 55 13 83 83 W 3 6 30.18 1022 7 11 N/A
7:50 am 07:50 Mostly Sunny 61 16 55 13 83 83 NW 5 7 30.18 1022 7 11 N/A
8:20 am 08:20 Mostly Sunny 63 17 54 12 73 73 NW 5 7 30.18 1022 7 11 N/A
8:50 am 08:50 Mostly Sunny 64 18 52 11 64 64 NNW 5 7 30.21 1023 7 11 N/A
9:20 am 09:20 Mostly Sunny 66 19 52 11 60 60 N 6 9 30.21 1023 7 11 N/A
9:50 am 09:50 Mostly Sunny 66 19 50 10 56 56 VRB 5 7 30.21 1023 7 11 N/A
10:20 am 10:20 Mostly Sunny 68 20 52 11 56 56 NW 7 11 30.21 1023 30 48 N/A
10:50 am 10:50 Mostly Sunny 70 21 50 10 50 50 NNW 6 9 30.21 1023 30 48 N/A
11:20 am 11:20 Mostly Sunny 70 21 48 9 46 46 VRB 7 11 30.21 1023 30 48 N/A
11:50 am 11:50 Mostly Sunny 70 21 50 10 50 50 NW 8 13 30.21 1023 30 48 N/A
12:20 pm 12:20 Partly Cloudy 72 22 50 10 47 47 N 7 11 30.21 1023 30 48 N/A
12:50 pm 12:50 Mostly Sunny 72 22 48 9 44 44 NNW 6 9 30.21 1023 30 48 N/A
1:20 pm 13:20 Partly Cloudy 73 23 50 10 44 44 VRB 6 9 30.18 1022 30 48 N/A
1:50 pm 13:50 Mostly Sunny 72 22 48 9 44 44 VRB 6 9 30.18 1022 7 11 N/A
2:20 pm 14:20 Mostly Sunny 73 23 52 11 47 47 VRB 3 6 30.18 1022 7 11 N/A
2:50 pm 14:50 Mostly Sunny 73 23 50 10 44 44 VRB 7 11 30.18 1022 7 11 N/A
3:20 pm 15:20 Mostly Sunny 73 23 50 10 44 44 NW 7 11 30.18 1022 7 11 N/A
3:50 pm 15:50 Mostly Sunny 72 22 48 9 44 44 WNW 8 13 30.18 1022 7 11 N/A
4:20 pm 16:20 Mostly Sunny 75 24 50 10 41 41 NW 7 11 30.18 1022 7 11 N/A
4:50 pm 16:50 Mostly Sunny 75 24 50 10 41 41 W 6 9 30.18 1022 7 11 N/A
5:20 pm 17:20 Mostly Sunny 75 24 50 10 41 41 W 7 11 30.18 1022 7 11 N/A
5:50 pm 17:50 Mostly Sunny 75 24 48 9 39 39 WNW 3 6 30.18 1022 7 11 N/A
6:20 pm 18:20 Mostly Sunny 73 23 50 10 44 44 N 7 11 30.18 1022 7 11 N/A
6:50 pm 18:50 Mostly Sunny 73 23 52 11 47 47 N 8 13 30.18 1022 7 11 N/A
7:20 pm 19:20 Mostly Sunny 72 22 54 12 53 53 N 8 13 30.18 1022 7 11 N/A
7:50 pm 19:50 Mostly Sunny 72 22 54 12 53 53 N 8 13 30.18 1022 7 11 N/A
8:20 pm 20:20 Mostly Sunny 70 21 52 11 53 53 N 7 11 30.18 1022 7 11 N/A
8:50 pm 20:50 Mostly Sunny 66 19 52 11 60 60 NE 7 11 30.18 1022 7 11 N/A
9:20 pm 21:20 Mostly Sunny 64 18 52 11 64 64 NE 6 9 30.21 1023 7 11 N/A
9:50 pm 21:50 Mostly Clear 61 16 52 11 72 72 NNE 5 7 30.21 1023 7 11 N/A

Powered by AerisWeather